Location: Wiler
(46.4041°N, 7.7840°E)
Time: 13:11:30
(UTC+00:00)

IRIDIUM 104 - Pass Details

Date: 09 April 2020
Orbit: 776 x 779 km, 86.4° (Epoch: 27 May)

Event Time Altitude Azimuth Distance (km) Brightness Sun altitude
Rises 18:38:18 0° 357° (N) 3,275 7.9 -5.7°
Reaches altitude 10° 18:40:40 10° 358° (N) 2,342 7.1 -6.1°
Maximum altitude 18:45:55 83° 86° (E) 790 4.3 -7.0°
Drops below altitude 10° 18:51:08 10° 175° (S) 2,322 6.6 -7.8°
Sets 18:53:28 0° 177° (S) 3,245 7.3 -8.2°
